Location: Albany
(35.0000°S, 118.0000°E)
Time: 01:56:48
(UTC-04:00)

Amateur Radio Satellites - All Passes

Search period start: 30 September 2014 01:26
Search period end: 01 October 2014 01:26
Location: Albany, 35.0000°S, 118.0000°E

Satellite Date Start Highest point End Downlink Frequencies (MHz)
Time Altitude Azimuth
TMSAT-1 30 Sep 01:56:27 01:59:17 14° 88° (E) 02:02:06 436.925 FM
Oscar 19 30 Sep 02:00:30 02:05:43 67° 254° (WSW) 02:10:52 437.125 CW, 437.150 USB
ITAMSAT 1 30 Sep 02:09:19 02:14:29 59° 79° (E) 02:19:36 435.822 SSB
Uribyol 2 30 Sep 02:10:31 02:15:43 66° 78° (ENE) 02:20:51 436.500 FM
JAS-1B 30 Sep 02:14:07 02:24:11 90° 75° (ENE) 02:33:19 435.800 - 435.900 CW/SSB
KITSAT 1 30 Sep 02:24:09 02:32:20 86° 296° (WNW) 02:40:26 435.175 FM
RS-15 30 Sep 02:41:36 02:53:34 66° 237° (WSW) 03:05:52 29.354 - 29.394 USB, Beacon 29.352 USB
Oscar 16 30 Sep 02:42:06 02:46:22 26° 248° (WSW) 02:50:36 437.025 USB, Beacon 2401.1428
AO-27 30 Sep 02:47:28 02:52:36 57° 253° (WSW) 02:57:41 436.795 MHz FM
AO-7 30 Sep 03:02:16 03:07:40 18° 87° (E) 03:13:00 29.400 - 29.500 MHz
AO-Echo 30 Sep 03:02:20 03:06:45 31° 249° (WSW) 03:11:00 ?
Gurwin Techsat 1B 30 Sep 03:04:39 03:10:03 82° 256° (WSW) 03:15:22 435.225 FM
OPAL 30 Sep 03:27:58 03:32:17 31° 113° (ESE) 03:36:39 ?
SO-50 30 Sep 03:31:49 03:35:50 31° 126° (SE) 03:39:47 436.795 FM
TMSAT-1 30 Sep 03:34:16 03:39:32 59° 254° (WSW) 03:44:44 436.925 FM
ITAMSAT 1 30 Sep 03:50:32 03:53:25 15° 244° (WSW) 03:56:18 435.822 SSB
Uribyol 2 30 Sep 03:52:03 03:54:34 14° 243° (WSW) 03:57:04 436.500 FM
ISS 30 Sep 04:03:11 04:05:52 21° 148° (SSE) 04:08:32 145.800 FM
JAS-1B 30 Sep 04:06:18 04:13:13 22° 237° (WSW) 04:19:54 435.800 - 435.900 CW/SSB
AO-40 30 Sep 04:17:19 11:15:27 56° 2° (N) 17:38:31 Beacon 2401.320
Uosat F 30 Sep 04:21:43 04:26:46 63° 78° (ENE) 04:31:44 435.120 FM
KITSAT 1 30 Sep 04:22:47 04:26:32 14° 280° (W) 04:30:16 435.175 FM
JAS-2 30 Sep 04:32:02 04:34:40 13° 92° (E) 04:37:11 435.800 - 435.900 CW/SSB, 435.910 FM
AO-7 30 Sep 04:52:42 05:01:09 80° 251° (WSW) 05:09:29 29.400 - 29.500 MHz
RS-15 30 Sep 05:00:28 05:09:08 21° 209° (SSW) 05:17:52 29.354 - 29.394 USB, Beacon 29.352 USB
OPAL 30 Sep 05:07:02 05:11:07 26° 278° (W) 05:15:15 ?
SO-50 30 Sep 05:12:41 05:16:11 23° 291° (WNW) 05:19:39 436.795 FM
MaSat-1 30 Sep 05:18:41 05:21:03 59° 247° (WSW) 05:23:36 437.345 MHz
ISS 30 Sep 05:39:29 05:42:39 37° 312° (NW) 05:45:47 145.800 FM
UOSAT-12 30 Sep 05:45:54 05:50:17 59° 121° (ESE) 05:54:41 437.025 FM, 437.400 FM
Hamsat 30 Sep 05:58:43 06:03:09 85° 78° (ENE) 06:07:33 145.90 MHz
Uosat F 30 Sep 06:02:32 06:04:57 14° 243° (WSW) 06:07:20 435.120 FM
STRAND 1 30 Sep 06:05:30 06:10:39 74° 105° (ESE) 06:15:52 ?
JAS-2 30 Sep 06:14:18 06:20:33 69° 254° (WSW) 06:26:02 435.800 - 435.900 CW/SSB, 435.910 FM
AO-7 30 Sep 06:48:03 06:52:35 16° 233° (SW) 06:57:07 29.400 - 29.500 MHz
SO-67 30 Sep 07:23:03 07:26:34 65° 257° (WSW) 07:30:01 435.3500 MHz FM
RS-15 30 Sep 07:23:06 07:28:51 14° 172° (S) 07:34:31 29.354 - 29.394 USB, Beacon 29.352 USB
UOSAT-12 30 Sep 07:28:33 07:29:53 11° 287° (WNW) 07:31:12 437.025 FM, 437.400 FM
STRAND 1 30 Sep 07:49:24 07:50:18 10° 271° (W) 07:51:13 ?
Oscar 10/S400 30 Sep 07:53:36 15:41:37 65° 64° (ENE) 17:50:44 145.825 - 145.975 CW/USB, Beacon 145.810 USB
HO-68 30 Sep 08:27:49 08:34:22 36° 82° (E) 08:40:48 435.675 MHz FM
Sapphire 30 Sep 08:38:39 08:43:52 51° 69° (ENE) 08:49:08 437.095 MHz 1200 baud AX-25 AFSK
UKube-1 30 Sep 08:42:26 08:45:00 15° 86° (E) 08:47:33 145.840 MHz, 145.915 MHz
PCSat 30 Sep 09:04:07 09:09:32 86° 244° (WSW) 09:15:00 145.825 MHz
ZACube-1 30 Sep 09:20:50 09:22:41 13° 87° (E) 09:24:32 437.345 MHz
RS-15 30 Sep 09:36:23 09:47:02 34° 138° (SE) 09:57:11 29.354 - 29.394 USB, Beacon 29.352 USB
Oscar 11 30 Sep 09:48:23 09:52:49 76° 78° (ENE) 09:57:12 145.825 FM, Beacon 2401.500 USB
FUNcube-1 30 Sep 10:10:05 10:14:17 49° 80° (E) 10:18:30 145.950 - 145.970 MHz USB
HO-68 30 Sep 10:15:27 10:21:58 38° 246° (WSW) 10:28:25 435.675 MHz FM
UKube-1 30 Sep 10:17:13 10:21:20 39° 252° (WSW) 10:25:23 145.840 MHz, 145.915 MHz
Sapphire 30 Sep 10:23:32 10:27:34 21° 232° (SW) 10:31:37 437.095 MHz 1200 baud AX-25 AFSK
PCSat 30 Sep 10:51:41 10:53:45 12° 226° (SW) 10:55:49 145.825 MHz
ZACube-1 30 Sep 10:55:09 10:59:16 45° 254° (WSW) 11:03:25 437.345 MHz
JAS-1B 30 Sep 11:11:34 11:13:09 11° 132° (SE) 11:14:47 435.800 - 435.900 CW/SSB
Oscar 19 30 Sep 11:37:55 11:40:24 14° 117° (ESE) 11:42:54 437.125 CW, 437.150 USB
FUNcube-1 30 Sep 11:48:27 11:50:13 12° 246° (WSW) 11:51:59 145.950 - 145.970 MHz USB
RS-15 30 Sep 11:48:39 12:00:37 74° 294° (WNW) 12:11:56 29.354 - 29.394 USB, Beacon 29.352 USB
Oscar 16 30 Sep 12:16:21 12:20:57 34° 110° (ESE) 12:25:37 437.025 USB, Beacon 2401.1428
AO-27 30 Sep 12:24:59 12:28:20 17° 115° (ESE) 12:31:42 436.795 MHz FM
AO-Echo 30 Sep 12:33:17 12:37:35 25° 112° (ESE) 12:41:54 ?
Gurwin Techsat 1B 30 Sep 12:46:08 12:48:25 13° 118° (ESE) 12:50:42 435.225 FM
JAS-1B 30 Sep 12:54:07 13:01:22 58° 111° (ESE) 13:10:04 435.800 - 435.900 CW/SSB
Saudisat 1A 30 Sep 12:55:51 12:59:52 35° 67° (ENE) 13:03:55 436.775 MHz
TMSAT-1 30 Sep 13:14:00 13:17:28 18° 115° (ESE) 13:20:56 436.925 FM
Oscar 19 30 Sep 13:14:03 13:19:08 64° 281° (WNW) 13:24:17 437.125 CW, 437.150 USB
ITAMSAT 1 30 Sep 13:23:55 13:29:05 65° 106° (ESE) 13:34:19 435.822 SSB
Uribyol 2 30 Sep 13:25:00 13:30:11 71° 105° (ESE) 13:35:26 436.500 FM
Oscar 16 30 Sep 13:56:14 14:00:19 24° 275° (W) 14:04:27 437.025 USB, Beacon 2401.1428
AO-7 30 Sep 13:58:15 14:04:04 21° 124° (SE) 14:09:54 29.400 - 29.500 MHz
AO-27 30 Sep 14:02:16 14:07:22 52° 280° (W) 14:12:32 436.795 MHz FM
RS-15 30 Sep 14:06:06 14:10:45 13° 276° (W) 14:15:20 29.354 - 29.394 USB, Beacon 29.352 USB
AO-Echo 30 Sep 14:11:13 14:16:05 36° 277° (W) 14:21:01 ?
Gurwin Techsat 1B 30 Sep 14:22:22 14:27:41 73° 282° (WNW) 14:33:04 435.225 FM
Saudisat 1A 30 Sep 14:36:07 14:39:31 21° 231° (SW) 14:42:56 436.775 MHz
JAS-1B 30 Sep 14:46:25 14:52:28 27° 270° (W) 14:59:26 435.800 - 435.900 CW/SSB
TMSAT-1 30 Sep 14:51:44 14:56:54 52° 280° (W) 15:02:08 436.925 FM
KITSAT 1 30 Sep 14:56:37 15:01:42 18° 78° (ENE) 15:06:47 435.175 FM
ITAMSAT 1 30 Sep 15:06:44 15:08:58 13° 272° (W) 15:11:13 435.822 SSB
Uribyol 2 30 Sep 15:08:32 15:10:06 11° 271° (W) 15:11:40 436.500 FM
MaSat-1 30 Sep 15:09:44 15:13:50 73° 291° (WNW) 15:18:23 437.345 MHz
Uosat F 30 Sep 15:31:33 15:36:33 62° 106° (ESE) 15:41:36 435.120 FM
OPAL 30 Sep 15:44:13 15:44:45 10° 87° (E) 15:45:16 ?
AO-7 30 Sep 15:47:31 15:55:52 80° 286° (WNW) 16:04:20 29.400 - 29.500 MHz
JAS-2 30 Sep 16:20:14 16:27:28 42° 111° (ESE) 16:34:33 435.800 - 435.900 CW/SSB, 435.910 FM
KITSAT 1 30 Sep 16:48:03 16:56:08 79° 242° (WSW) 17:04:18 435.175 FM
Hamsat 30 Sep 16:48:52 16:52:46 38° 107° (ESE) 16:56:44 145.90 MHz
Uosat F 30 Sep 17:13:32 17:15:41 13° 272° (W) 17:17:51 435.120 FM
OPAL 30 Sep 17:18:55 17:24:04 77° 253° (WSW) 17:29:13 ?
Sapphire 30 Sep 17:30:34 17:34:44 22° 127° (SE) 17:38:52 437.095 MHz 1200 baud AX-25 AFSK
SO-50 30 Sep 17:43:53 17:47:38 23° 69° (ENE) 17:51:22 436.795 FM
AO-7 30 Sep 17:46:37 17:49:41 12° 270° (W) 17:52:46 29.400 - 29.500 MHz
SO-67 30 Sep 17:53:06 17:55:51 22° 108° (ESE) 17:58:39 435.3500 MHz FM
PCSat 30 Sep 17:55:38 18:00:41 38° 122° (ESE) 18:05:41 145.825 MHz
JAS-2 30 Sep 18:05:08 18:12:19 39° 277° (W) 18:19:29 435.800 - 435.900 CW/SSB, 435.910 FM
STRAND 1 30 Sep 18:19:59 18:24:36 32° 83° (E) 18:29:09 ?
Hamsat 30 Sep 18:26:31 18:28:51 14° 273° (W) 18:31:13 145.90 MHz
KITSAT 1 30 Sep 18:47:40 18:52:52 18° 221° (SW) 18:58:06 435.175 FM
HO-68 30 Sep 18:54:26 18:59:24 20° 120° (ESE) 19:04:22 435.675 MHz FM
Sapphire 30 Sep 19:13:11 19:18:22 47° 291° (WNW) 19:23:31 437.095 MHz 1200 baud AX-25 AFSK
PANSAT 30 Sep 19:14:08 19:17:08 21° 14° (NNE) 19:20:08 not established
SO-50 30 Sep 19:23:32 19:27:59 36° 235° (SW) 19:32:24 436.795 FM
SO-67 30 Sep 19:26:34 19:28:48 16° 274° (W) 19:31:04 435.3500 MHz FM
PCSat 30 Sep 19:39:29 19:43:51 25° 287° (WNW) 19:48:10 145.825 MHz
UOSAT-12 30 Sep 19:54:13 19:58:22 38° 66° (ENE) 20:02:29 437.025 FM, 437.400 FM
STRAND 1 30 Sep 19:59:25 20:03:35 25° 248° (WSW) 20:07:44 ?
HO-68 30 Sep 20:39:11 20:46:21 71° 284° (WNW) 20:53:36 435.675 MHz FM
Oscar 11 30 Sep 20:40:14 20:44:14 38° 107° (ESE) 20:48:17 145.825 FM, Beacon 2401.500 USB
ISS 30 Sep 20:42:41 20:45:43 33° 48° (NE) 20:48:48 145.800 FM
PANSAT 30 Sep 20:53:25 20:56:52 31° 1° (N) 21:00:20 not established
FUNcube-1 30 Sep 21:03:50 21:07:24 26° 109° (ESE) 21:10:58 145.950 - 145.970 MHz USB
UKube-1 30 Sep 21:08:51 21:13:14 70° 282° (WNW) 21:17:40 145.840 MHz, 145.915 MHz
Saudisat 1A 30 Sep 21:26:46 21:29:01 14° 133° (SE) 21:31:15 436.775 MHz
UOSAT-12 30 Sep 21:35:16 21:38:35 20° 231° (SW) 21:41:54 437.025 FM, 437.400 FM
ZACube-1 30 Sep 21:48:06 21:52:24 88° 282° (WNW) 21:56:40 437.345 MHz
Oscar 11 30 Sep 22:17:58 22:20:32 15° 273° (W) 22:23:06 145.825 FM, Beacon 2401.500 USB
ISS 30 Sep 22:19:42 22:22:27 23° 213° (SSW) 22:25:14 145.800 FM
PANSAT 30 Sep 22:33:29 22:36:38 23° 348° (NNW) 22:39:46 not established
FUNcube-1 30 Sep 22:40:29 22:43:44 21° 275° (W) 22:46:59 145.950 - 145.970 MHz USB
Saudisat 1A 30 Sep 23:04:37 23:09:00 63° 297° (WNW) 23:13:20 436.775 MHz
RS-15 30 Sep 23:57:38 00:06:23 24° 79° (E) 00:15:15 29.354 - 29.394 USB, Beacon 29.352 USB
Oscar 16 01 Oct 00:32:28 00:35:37 16° 87° (E) 00:38:44 437.025 USB, Beacon 2401.1428
JAS-1B 01 Oct 00:44:19 00:52:05 26° 90° (E) 00:59:14 435.800 - 435.900 CW/SSB
KITSAT 1 01 Oct 00:45:31 00:52:32 31° 130° (SE) 00:59:29 435.175 FM
